[Date Prev][Date Next][Thread Prev][Thread Next][Date Index][Thread Index]

[jamsat-news:566] jas2info#38



=========================   最新情報   =========================

    Last updated:Sat,14− June−97  20:00 (JST) #38

================================================================
   
   衛星情報 FOシリーズの軌道要素、テレメトリ、QSOの状況等をま
 とめてみました.

  1)FO−29(ふじ3号)は6月14日(土)の18:45(JST)
    のパスではJDディジタルモードでJARLのスケジュールどうりに
    運用されています. 
    
  ・軌道要素1:「jamsatーkeps:594」より
               SB KEPS @ AMSAT  $ORBS-164.N
               2Line Orbital Elements 164.AMSAT

  HR AMSAT ORBITAL ELEMENTS FOR AMATEUR SATELLITES IN NASA FORMAT
  FROM WA5QGD FORT WORTH,TX June 13, 1997
  SEND SUBSCRIBE/UNSUBSCRIBE TO listserv@amsat.org ONLY
  BID: ORBS-164.N

   DECODE 2-LINE ELSETS WITH THE FOLLOWING KEY:
  1 AAAAAU 00  0  0 BBBBB.BBBBBBBB  .CCCCCCCC  00000-0  00000-00 
    DDDZ
  2 AAAAA EEE.EEEE FFF.FFFF GGGGGGG HHH.HHHH III.IIII JJ.JJJJJJJJ
    KKKKKZ
  KEY: A-CATALOGNUM B-EPOCHTIME C-DECAY D-ELSETNUM E-INCLINATION 
       F-RAAN
  G-ECCENTRICITY H-ARGPERIGEE I-MNANOM J-MNMOTION K-ORBITNUM 
       Z-CHECKSUM
   FO-29
   1 24278U 96046B   97163.11063491  .00000002  00000-0  38421-4 0 
     00972
   2 24278 098.5383 205.0305 0351153 199.2447 159.5153 13.526312790
     40439

  ・軌道要素:「jamsatーkeps:595」より
               SB KEPS @ AMSAT  $ORBS-164.O
               Orbital Elements  164.OSCAR

  HR AMSAT ORBITAL ELEMENTS FOR OSCAR SATELLITES
  FROM WA5QGD FORT WORTH,TX June 13, 1997
  SEND SUBSCRIBE/UNSUBSCRIBE TO listserv@amsat.org ONLY
  BID: ORBS-164.O
  TO ALL RADIO AMATEURS BT

  Satellite: FO-29
  Catalog number: 24278
  Epoch time:      97163.11063491
  Element set:    0097
  Inclination:      098.5383 deg
  RA of node:       205.0305 deg
  Eccentricity:    0.0351153
  Arg of perigee:   199.2447 deg
  Mean anomaly:     159.5153 deg
  Mean motion:   13.52631279 rev/day
  Decay rate:        2.0e-08 rev/day^2
  Epoch rev:           04043
  Checksum:              299
 -----------------------------------------------------------
   *FO−29 のFMデジトーカについて
 
  1) [jamsat-2544]にJA3CFの岩崎好宏さんが投稿されてます、
      一部ですがご紹介します.
  
   久しぶりにFO-29のデジトーカがオンになっているという情報で受信
  してみました。「This is JAS-2」という女性の声に続いてウグイスが
  「ホーホケキョ」とひとこと鳴きます.

   このデジトーカが人気があるのでスケジュールを変更しているそう
  ですので、ここに最新情報をお届けします.(内容は入門者向け)
   --------------------------------------------------------
          「ふじ3号」デジトーカ受信キット

                   (社)日本アマチュア無線連盟
                      技術研究所

  岩崎 好宏     JA3CF    E-mail <ja3cf@jamsat.or.jp>
          URL <http://www.asahi-net.or.jp/~pt5y-iwsk>

 2) [jamsat-bb 2549]にデジトーカの受信状況をJA6BXの江崎昌男氏が
   投稿されてますのでご紹介します.

 既報の「うぐいすの声」デジトーカーをハンディ機で室内受信を試みました.
 
  4/4日 20:25JST前後のパスでしたが、約8分間ハンディ機付
属の短縮ホイップでもメリット5で入感していました。 「ホーホケキョ」の
周波数帯域が特にハンディ機のオーディオ特性にも相性がよいようです. 
  信号強度も去年の9月にデジトーカー運用の初期に比べると安定して、
強力になったように感じられます.

  アマチュア無線や、衛星通信に無関係の人たちに聞かせてあげるのにもっ
てこいのデモンストレーションと言えます.

 使用機:STANDARD C520 
 アンテナ:付属の短縮型ホイップ
 受信場所:福岡市南区(PM53EN)木造家屋の二階
 天候:雨
                                                       以 上
    73, de JA6BX - Y. Esaki 34122731@people.or.jp 
                         or, ja6bx@jamsat.or.jp
                             ja6bx@amsat.org  
---------------------------------------------------------------  
 *FO−29(ふじ3号)の6月14日(土)のJDディジタルモード、
 1200bpsで運用中のTNC解読によるテレメトリの最後の部分です.
(熊本市)

 AS4074P  14Jun97
 JST 18:45 ー 19:02
 Freq.435.918 ー903MHz  USSB  RS 59+10db

JAS-2    '97/06/14 09:52:58
9C 03 03 08 02 2A 00 02 00 00
00 00 6C 60 7C 76 4E 94 91 9F
AA 52 A8 01 D5 B4 B8 B9 B6 B7
8J1JCS>BEACON [06/14/97  18:59:07]:D5 02 00 09 40 80 7F 40 00 00
77 50 15 75 1E 63 65 7B 8F 83
00 00 00 AD 78 B3 F7 00 00 00
8J1JCS>BEACON [06/14/97  18:59:08]:
Total 02 user(s)
Call sign  Remain time

7N1JVW-0   00:00
JA6AQV-0   07:26
8J1JCS>BEACON [06/14/97  18:59:09]:
Total   22 File(s)

 No.  Date  UTC    To    From   Size   Subject
0230 06/14 09:38 ALL    7N1JVW    5554 2Line Orbital Element
8J1JCS>BEACON [06/14/97  18:59:10]:s 164.AMSAT
0218 06/01 09:
46 ALL    DK5EC      181 Greetings from Koenigswinter/Seven Mou
0217 06/01 09:19 ALL    7N1JVW     986
8J1JCS>BEACON [06/14/97  18:59:12]:
 2Line Orbital Elements 150.AMSAT
0205 05/29 19:20 ALL    I4WRM      110 Ciao from Italy
0159 05/24 09:19 ALL    7N1JVW    5909 
8J1JCS>BEACON [06/14/97  18:59:13]:2Line Orbital Elements 97143
0144 05/13 23:42 ALL    JA0JWS     509 HELLO
0125 05/11 09:25 ALL    DA1LA       86 Hello
0118 05/1
8J1JCS>BEACON [06/14/97  18:59:14]:
0 12:15 ALL    KB2MVN      57 Any one work 9600?
0108 05/09 07:55 ALL    ON6MP       75 hello from Belgium
0106 05/08 10:31 ALL 
8J1JCS>BEACON [06/14/97  18:59:15]:   ON6MP        1 
8J1JCS>JA6AQV [06/14/97  18:59:16]:
                 *The Station* 
Icom IC-471, KLM 70W amp, Lanwahr preamp, KLM 44cx
Icom IC-271H 100w., Lanwahr preamp, KLM 12c

8J1JCS>JA6AQV [06/14/97  18:59:18]:
LL Grace DSP-12, Main modem for automation
Yaesu G-5400b, 10ft fiberglass boom
Pentium/100, 850meg HD, 16meg on board
          
8J1JCS>JA6AQV [06/14/97  18:59:19]:
    40 miles S.E. Albany Grid Fn32            
ィ継巴陪ヲ燒都彗芋LL Grace DSP-12, Main modem for automation
顆p巴陪ヲ燒都彗酒So
8J1JCS>JA6AQV [06/14/97  18:59:20]:und Blaster, Video Blaster
8J1JCS>JA6AQV [06/14/97  18:59:22]:
-- MORE(Yes=Y)or(No=N) --8J1JCS>JA5BLZ [06/14/97  18:59:31]:
FO-29/JAS-2 Mailbox ver 1.01
You can use Mailbox for 10 minutes.
commands [B/F/H/K/M/Q/R/U/W/Y]
Use H command for Help
JAS2>8J1JCS>JA6AQV [06/14/97  18:59:39]:
JAS2>8J1JCS>JA5BLZ [06/14/97  18:59:46]:
FO-29/JAS-2 Mailbox ver 1.01
You can use Mailbox for 10 minutes.
commands [B/F/H/K/M/Q/R/U/W/Y]
Use H command for Help
JAS2>8J1JCS>JA6AQV [06/14/97  19:00:07]:
Total  107 File(s)

 No.  Date  UTC    To    From   Size   Subject
0230 06/14 09:38 ALL    7N1JVW    5554 2Line Orbital Element
8J1JCS>JA6AQV [06/14/97  19:00:09]:s 164.AMSAT
0229 06/14 04:29 W9ODI  WB7QKK     183 report#2
0228 06/14 02:39 W9ODI  WB7QKK     203 w9odi
0227 06/13 16:27 WB7QKK
8J1JCS>JA6AQV [06/14/97  19:00:10]: W9ODI      184 We are Back!!
0226 06/04 03:01 9      WB7QKK     244 o
0219 06/01 09:55 DK5EC  DK5EC       43 Test from Koenigsw
8J1JCS>JA6AQV [06/14/97  19:00:11]:inter
0218 06/01 09:
46 ALL    DK5EC      181 Greetings from Koenigswinter/Seven Mou
0217 06/01 09:19 ALL    7N1JVW     986 2Line
8J1JCS>JA6AQV [06/14/97  19:00:13]: Orbital Elements 150.AMSAT
0211 05/31 01:26 KB2MVN AD4EB      234 Howdy Frank
0205 05/29 19:20 ALL    I4WRM      110 Ciao from 
8J1JCS>JA6AQV [06/14/97  19:00:14]:Italy
8J1JCS>JA6AQV [06/14/97  19:00:16]:
-- MORE(Yes=Y)or(No=N) --8J1JCS>JA6AQV [06/14/97  19:00:43]:
JAS2>8J1JCS>BEACON [06/14/97  19:01:05]:
JAS-2    '97/06/14 09:54:58
9C 03 03 08 02 2A 00 03 00 00
00 00 6C 60 B8 7B 4D 95 92 9F
AA 52 A7 01 D7 B4 B8 B9 B6 B7
8J1JCS>BEACON [06/14/97  19:01:07]:D5 02 00 09 40 80 7F 40 00 00
70 50 15 7C 1A 60 62 7B 8F 83
00 00 00 AD 78 B3 F7 00 00 00
8J1JCS>BEACON [06/14/97  19:01:08]:
Total 02 user(s)
Call sign  Remain time

JA5BLZ-0   08:25
JA6AQV-0   05:26

*横に長い部分は改行を加えました.(JH6MME)
 ----------------------------------------------------
 2)FO-20(ふじ2号): JAモードの運用で順調に作動しています.
     アナログモードにてのQSOや思わぬDXが楽しめます.

  ・軌道要素1 :出典は「ふじ3号」に同じ.   
 
  FO-20
  1 20480U 90013C   97162.96510181 -.00000074  00000-0 -95861-4 0 
    09955
  2 20480 099.0453 125.5347 0541341 029.2509 333.7778 12.83237853
    344032

  ・軌道要素2 :

  Satellite: FO-20
  Catalog number: 20480
  Epoch time:      97162.96510181
  Element set:    0995
  Inclination:      099.0453 deg
  RA of node:       125.5347 deg
  Eccentricity:    0.0541341
  Arg of perigee:   029.2509 deg
  Mean anomaly:     333.7778 deg
  Mean motion:   12.83237853 rev/day
  Decay rate:       -7.4e-07 rev/day^2
  Epoch rev:           34403
  Checksum:              314
  -------------------------------------------------------
 *FO−20 JAモードでRS 59程度で(受信感度はアンテナより
   見て約125db)非常に強力な信号で受信できています。衛星の
   現在の状態を符号化し、知らせるビーコン波にのっているテレメトリ
   です.
    6月12日(木) JST  15:36 のパスの 一部分です。
   (TNCで解読)
   AS34403C  12June97      CW   RS 59
   JST 15:40 - 15:53

  HI HI 127 148 170 171 285 284 253 261 352 351 
        354 354 401 435 402 400 500 526 500 500 
  HI HI 130 148 170 171 285 284 254 261 352 351
        354 354 401 435 4OI 400 500 526 500 500
  HI HI 130 148 170 171 285 284 253 261 352 351 
        353 354 401 435 402 400 500 526 5 0 500 
  HI HI 130 148 170 171 2^5 284 253 262 352 351 
        353 354 401 435 402 400 500 526 500 500 
  HI HI 131 149 170 171 285 284 252 262 352 351 
        353 354 401 435 402 400 500 526 500 500 
  HI HI 131 149 166 171 275 284 253 262 352 351
        353 354 401 435 402 400 500 526 500 500 
 -----------------------------------------------------------------
 *FOー20のJAモードでアナログQSO

 [jamsat-bb:2429]に投稿されたJA6BX局江崎昌男氏のQSOの状況です.

     2/12日の18:02JSTに、UA4NM Kirov の VladさんとFO-20経由でQSO
  しました.
  当方はLOS寸前で、当局のCWでのCQに答えてくれたものですが、FO-20で
  は初めてのUA4です.
* 後日、江崎氏のコメント:                                  
    昨日QSOできたUA4NMは1987年にAO−10でQSOしていま
 すが、FO−20/29のような低軌道衛星では、昨年のOH5LK以来の
 DXで、大変うれしく思います.
                     73, de JA6BX - Y. Esaki 34122731@people.or.jp 
                                            or, ja6bx@jamsat.or.jp          
=======================   JARL運用情報   =======================

   JARL News 5月号を見ていたら、27ページに「ふじ3号」の運用スケジュ
  ールが載っていました.

        ■ ふじ3号 ■ の運用予定

   6月13日(金)  00:39(09:39) JD1200
       20日(金)  09:41(18:41) JD9600
       27日(金)  00:11(09:11) JA
   7月  4日(金)  09:13(18:13) デジカート
         8日(金)  09:06(18:06) JA
 *切替時刻はUTCで表示しています.カッコ内の時刻は
   日本時間です.なお、都合により運用モードを変更する
   場合があります.
   JA:アナログ系運用
   JD:ディジタル系運用
       *1200bps PSK   メールボックス運用(SSB)
       *9600bps FSK   メールボックス運用(FM)
       *デジトーカ       FM音声メッセージ送信

            ■ ふじ2号 ■
    「ふじ2号」はアナログ系の連続運用とします.   
 
                               以上「JARL NEWS 5月号より」
  *9600bpsはFSKでした、当局の転記ミスで、JH1QQN局飯野氏
    よりご指摘頂き、ここに訂正致します.(JH6MME) 
 =============   JAS-2 (ふじ3号)と現在までの情報   ===========
  
  A.電話によるふじ3号の運用情報
      社団法人日本アマチュア連盟によるサービス
               TEL No.   03− 3942 − 1000
   6月5日(木)現在#67のJDモード9600bpsのディジタル
   運用を継続とスケジュール変更はTELサービスで連絡のアナウンスが
   流れています.

